Tracking 19827 objects as of 21-Aug-2019
HD Live streaming from Space Station
objects crossing your sky now

FENGYUN 1C DEB

Track FENGYUN 1C DEB now!
10-day predictions


NORAD ID: 31608
Int'l Code: 1999-025BZN
Perigee: 551.5 km
Apogee: 869.6 km
Inclination: 98.6 °
Period: 98.8 minutes
Semi major axis: 7081 km
RCS: 0.0149 m2 (small)
Launch date: May 10, 1999
Source: People's Republic of China (PRC)
Launch site: Taiyaun Space Center, China (TSC)

Note: This is SATELLITE DEBRIS
aabbcc
Your satellite tracking list
Your tracking list is empty




NASA's NSSDC Master Catalog

Two Line Element Set (TLE):
1 31608U 99025BZN 19232.85446765  .00000200  00000-0  41648-4 0  9994
2 31608  98.5593 262.2006 0224593  36.1434 325.4709 14.56825330649403
Source of the keplerian elements: AFSPC